Weather History for KTTN - October, 2013

Change the Weather History Date:

Sunday, October 27, 2013

  Actual Average Record
Temperature  
Mean Temperature 48 °F 51 °F  
Max Temperature 58 °F 62 °F 83 °F (1963)
Min Temperature 38 °F 41 °F 24 °F (1987)
Degree Days  
Heating Degree Days 17 14  
Month to date heating degree days 204 274  
Since 1 July heating degree days 292 339  
Cooling Degree Days 0 0  
Month to date cooling degree days 36 7  
Year to date cooling degree days 1077 962  
Moisture  
Dew Point 30 °F    
Average Humidity 49    
Maximum Humidity 64    
Minimum Humidity 33    
Precipitation  
Precipitation 0.00 in 0.13 in 2.40 in (1987)
Month to date precipitation 1.61 3.69  
Year to date precipitation 35.57 38.94  
Sea Level Pressure  
Sea Level Pressure 29.98 in    
Wind  
Wind Speed 8 mph (WNW)    
Max Wind Speed 18 mph    
Max Gust Speed 28 mph    
Visibility 10 miles    
Events      
T = Trace of Precipitation, MM = Missing Value Source: NWS Daily Summary

Daily Weather History Graph

Daily Weather History Graph

Search for Another Location

Airport or City:

Trip Planner

Search our weather history database for the weather conditions in past years. The results will help you decide how hot, cold, wet, or windy it might be!

Date:

Astronomy

Oct. 27, 2013 Rise Set
Actual Time 7:23 AM EDT 6:02 PM EDT
Civil Twilight 6:55 AM EDT 6:30 PM EDT
Nautical Twilight 6:23 AM EDT 7:02 PM EDT
Astronomical Twilight 5:51 AM EDT 7:33 PM EDT
Moon 12:17 AM EDT (10/27) 2:10 PM EDT (10/27)
Length of Visible Light 11h 34m
Length of Day
10h 38m
Last Quarter, 44% of the Moon is Illuminated
Oct 27
Last Quarter
Nov 3
New
Nov 10
First Quarter
Nov 17
Full
Nov 25
Last Quarter

Hourly Weather History & Observations

Time (EDT) Temp. Windchill Dew Point Humidity Pressure Visibility Wind Dir Wind Speed Gust Speed Precip Events Conditions
12:53 AM 48.0 °F - 34.0 °F 58% 29.88 in 10.0 mi Variable 3.5 mph - N/A   Overcast
1:53 AM 50.0 °F - 30.9 °F 48% 29.88 in 10.0 mi SW 5.8 mph - N/A   Overcast
2:53 AM 50.0 °F - 30.0 °F 46% 29.88 in 10.0 mi West 5.8 mph - N/A   Overcast
3:53 AM 48.9 °F - 28.9 °F 46% 29.88 in 10.0 mi West 5.8 mph - N/A   Scattered Clouds
4:53 AM 46.9 °F - 28.9 °F 50% 29.88 in 10.0 mi West 4.6 mph - N/A   Clear
5:53 AM 45.0 °F 41.8 °F 28.9 °F 53% 29.91 in 10.0 mi WNW 5.8 mph - N/A   Clear
6:53 AM 44.1 °F 40.8 °F 30.0 °F 58% 29.93 in 10.0 mi WNW 5.8 mph - N/A   Clear
7:53 AM 44.1 °F 40.8 °F 30.9 °F 60% 29.95 in 10.0 mi West 5.8 mph - N/A   Clear
8:53 AM 46.9 °F - 32.0 °F 56% 29.98 in 10.0 mi West 8.1 mph - N/A   Clear
9:53 AM 50.0 °F - 33.1 °F 52% 29.99 in 10.0 mi WNW 11.5 mph 20.7 mph N/A   Clear
10:53 AM 52.0 °F - 33.1 °F 49% 30.00 in 10.0 mi WNW 12.7 mph 20.7 mph N/A   Clear
11:53 AM 54.0 °F - 32.0 °F 43% 29.99 in 10.0 mi WNW 11.5 mph 20.7 mph N/A   Clear
12:53 PM 55.9 °F - 33.1 °F 42% 29.97 in 10.0 mi West 10.4 mph 24.2 mph N/A   Clear
1:53 PM 55.0 °F - 30.0 °F 38% 29.96 in 10.0 mi WNW 15.0 mph 26.5 mph N/A   Partly Cloudy
2:53 PM 55.9 °F - 30.9 °F 39% 29.96 in 10.0 mi WNW 11.5 mph 19.6 mph N/A   Partly Cloudy
3:53 PM 57.0 °F - 28.9 °F 34% 29.97 in 10.0 mi WNW 10.4 mph 25.3 mph N/A   Clear
4:53 PM 55.9 °F - 28.9 °F 36% 29.99 in 10.0 mi NW 10.4 mph 17.3 mph N/A   Mostly Cloudy
5:53 PM 53.1 °F - 28.9 °F 40% 30.01 in 10.0 mi NW 10.4 mph 18.4 mph N/A   Partly Cloudy
6:53 PM 51.1 °F - 28.9 °F 43% 30.04 in 10.0 mi NW 9.2 mph - N/A   Clear
7:53 PM 48.9 °F - 28.9 °F 46% 30.06 in 10.0 mi WNW 6.9 mph - N/A   Clear
8:53 PM 46.9 °F - 28.0 °F 48% 30.09 in 10.0 mi WNW 4.6 mph - N/A   Clear
9:53 PM 46.0 °F 41.4 °F 28.0 °F 50% 30.11 in 10.0 mi NW 9.2 mph - N/A   Clear
10:53 PM 45.0 °F 43.5 °F 28.9 °F 53% 30.12 in 10.0 mi West 3.5 mph - N/A   Clear
11:53 PM 39.9 °F 37.8 °F 28.9 °F 65% 30.14 in 10.0 mi Variable 3.5 mph - N/A   Clear